PRIMDA Weather Reports


Display with metric or nautical units.
time (UTC)temp
F
wind
direction
speed
MPH
gust
MPH
rain 1hr
in
rain 24hr
in
rain mn
in
humidity
%
barometer
mb
20260505211606 52 110 2.0 0.0 0.00 0.00 0.00 93
20260505201606 52 270 5.0 0.0 0.00 0.00 0.00 93
20260505191607 52 280 14.0 0.0 0.00 0.00 0.00 93
20260505181607 52 270 16.0 0.0 0.00 0.00 0.00 93
20260505171606 57 70 9.0 0.0 0.00 0.00 0.00 82
20260505161706 63 70 5.0 0.0 0.00 0.00 0.00 63
20260505151606 68 70 2.0 0.0 0.00 0.00 0.00 40
20260505121606 72 110 2.0 0.0 0.00 0.00 0.00 35
20260505111606 68 20 2.0 0.0 0.00 0.00 0.00 45
20260505101606 68 40 5.0 0.0 0.00 0.00 0.00 45
20260505091606 64 70 2.0 0.0 0.00 0.00 0.00 52
20260505081606 63 70 5.0 0.0 0.00 0.00 0.00 51
20260505071606 59 70 5.0 0.0 0.00 0.00 0.00 62
20260505061606 59 70 5.0 0.0 0.00 0.00 0.00 62
20260505051607 55 70 7.0 0.0 0.00 0.00 0.00 66
20260505041605 55 70 7.0 0.0 0.00 0.00 0.00 66
20260505031607 55 70 5.0 0.0 0.00 0.00 0.00 66
20260505021606 57 70 5.0 0.0 0.00 0.00 0.00 62
20260505011608 57 80 7.0 0.0 0.00 0.00 0.00 58
20260505001607 59 60 5.0 0.0 0.00 0.00 0.00 54
20260504231607 59 30 5.0 0.0 0.00 0.00 0.00 54
20260504221607 61 40 2.0 0.0 0.00 0.00 0.00 44